Ketchikan, AK

8:54 AM AKST on November 13, 2018 (GMT -0900)
Ketchikan International

Weather History for PAKT - June, 2018

Change the Weather History Date:

Wednesday, June 6, 2018

  Actual Average Record
Temperature  
Mean Temperature 50 °F -  
Max Temperature 52 °F 61 °F 87 °F (1958)
Min Temperature 48 °F 45 °F 37 °F (1952)
Degree Days  
Heating Degree Days 15    
Moisture  
Dew Point 46 °F    
Average Humidity 84    
Maximum Humidity 93    
Minimum Humidity 71    
Precipitation  
Precipitation 0.66 in - - ()
Sea Level Pressure  
Sea Level Pressure 29.70 in    
Wind  
Wind Speed 15 mph (SE)    
Max Wind Speed 29 mph    
Max Gust Speed 38 mph    
Visibility 8 miles    
Events Rain    
Averages and records for this station are not official NWS values.
T = Trace of Precipitation, MM = Missing Value Source: NWS Daily Summary

Daily Weather History Graph

Daily Weather History Graph

Search for Another Location

Airport or City:

Astronomy

Jun. 06, 2018 Rise Set
Actual Time 4:08 AM AKDT 9:23 PM AKDT
Civil Twilight 3:11 AM AKDT 10:20 PM AKDT
Nautical Twilight 1:17 AM AKDT 12:13 AM AKDT
Astronomical Twilight Sun does not rise Sun does not rise
Moon 1:43 AM AKDT (6/6) 12:12 PM AKDT (6/6)
Length of Visible Light 19h 09m
Length of Day
17h 14m
Waning Gibbous, 49% of the Moon is Illuminated
Jun 6
Waning Gibbous
Jun 13
New
Jun 20
First Quarter
Jun 27
Full
Jul 5
Last Quarter

Hourly Weather History & Observations

Time (AKDT) Temp. Dew Point Humidity Pressure Visibility Wind Dir Wind Speed Gust Speed Precip Events Conditions
12:53 AM 50.0 °F 45.0 °F 83% 29.60 in 10.0 mi SSE 10.4 mph - 0.03 in Rain Light Rain
1:53 AM 50.0 °F 45.0 °F 83% 29.60 in 10.0 mi SE 15.0 mph 23.0 mph 0.05 in Rain Light Rain
2:53 AM 50.0 °F 45.0 °F 83% 29.60 in 5.0 mi SSE 12.7 mph 23.0 mph 0.08 in Rain Light Rain
3:53 AM 50.0 °F 46.0 °F 86% 29.60 in 3.0 mi SE 28.8 mph 38.0 mph 0.09 in Rain Rain
4:00 AM 50.0 °F 46.0 °F 86% 29.60 in 3.0 mi SE 25.3 mph 38.0 mph 0.02 in Rain Rain
4:53 AM 50.0 °F 46.0 °F 86% 29.64 in 5.0 mi SE 16.1 mph - 0.14 in Rain Light Rain
5:53 AM 50.0 °F 46.0 °F 86% 29.66 in 10.0 mi SE 13.8 mph - 0.02 in   Overcast
6:53 AM 50.0 °F 44.1 °F 80% 29.68 in 10.0 mi SE 13.8 mph - N/A   Overcast
7:53 AM 51.8 °F 42.8 °F 71% 29.70 in 10.0 mi SE 17.3 mph 27.6 mph N/A   Overcast
8:53 AM 51.8 °F 44.6 °F 76% 29.72 in 10.0 mi SE 9.2 mph 23.0 mph N/A   Overcast
9:53 AM 51.8 °F 44.6 °F 76% 29.72 in 10.0 mi SE 16.1 mph - N/A Rain Light Rain
10:53 AM 51.8 °F 46.4 °F 82% 29.73 in 5.0 mi SE 23.0 mph 28.8 mph N/A Rain Light Rain
11:53 AM 50.0 °F 46.4 °F 87% 29.74 in 7.0 mi SE 13.8 mph - N/A Rain Light Rain
12:53 PM 50.0 °F 46.4 °F 87% 29.74 in 10.0 mi SE 18.4 mph 24.2 mph N/A   Overcast
1:53 PM 50.0 °F 46.4 °F 87% 29.74 in 7.0 mi SE 15.0 mph 21.9 mph N/A Rain Light Rain
2:53 PM 50.0 °F 46.4 °F 87% 29.74 in 7.0 mi SE 13.8 mph - N/A Rain Light Rain
3:53 PM 50.0 °F 46.4 °F 87% 29.74 in 10.0 mi SSE 10.4 mph - N/A   Overcast
4:53 PM 51.8 °F 46.4 °F 82% 29.73 in 10.0 mi SE 15.0 mph - N/A   Overcast
5:16 PM 52.0 °F 46.9 °F 83% 29.73 in 10.0 mi SE 16.1 mph - N/A   Overcast
5:53 PM 51.8 °F 46.4 °F 82% 29.73 in 7.0 mi SE 16.1 mph - N/A Rain Light Rain
6:53 PM 50.0 °F 44.6 °F 82% 29.73 in 7.0 mi SE 17.3 mph - N/A Rain Light Rain
7:53 PM 48.2 °F 44.6 °F 87% 29.73 in 5.0 mi SE 13.8 mph - N/A Rain Light Rain
8:53 PM 48.2 °F 44.6 °F 87% 29.72 in 5.0 mi SE 13.8 mph - N/A Rain Rain
9:53 PM 48.0 °F 46.0 °F 93% 29.72 in 5.0 mi SSE 9.2 mph - 0.19 in Rain Rain
10:53 PM 48.9 °F 45.0 °F 86% 29.72 in 10.0 mi SSE 11.5 mph - 0.02 in Rain Light Rain
11:53 PM 48.0 °F 45.0 °F 89% 29.72 in 6.0 mi SSE 9.2 mph - 0.04 in Rain Light Rain